Location: Banff
(51.1667°N, 115.5667°W)
Time: 22:30:13
(UTC+00:00)

deb Explorer IX - Pass Details

Date: 02 December 2020
Orbit: 536 x 1104 km, 38.8° (Epoch: 23 January)

Event Time Altitude Azimuth Distance (km) Brightness Sun altitude
Rises 01:58:17 0° 252° (WSW) 3,497 ? -21.0°
Reaches altitude 10° 02:01:37 10° 238° (WSW) 2,441 ? -21.6°
Maximum altitude 02:05:43 21° 192° (SSW) 1,682 ? -22.2°
Enters shadow 02:08:13 15° 156° (SSE) 1,890 ? -22.6°
